This is the latest recevied weather packets stored in our database for station/object KC5DP. If no packets are shown the sender has not sent any weather packets the latest 10 day(s).
| Time | Temp. | Humidity | Pressure | Rain* | Wind** | Luminosity | Snow |
|---|---|---|---|---|---|---|---|
| 1777394643 | 29.44° C | 72% | 1017.1 hPa | 0 mm | - | 263 W/m² | - |
| 1777394340 | 29.44° C | 71% | 1017.2 hPa | 0 mm | - | 740 W/m² | - |
| 1777394036 | 28.89° C | 72% | 1016.9 hPa | 0 mm | - | 741 W/m² | - |
| 1777393731 | 28.89° C | 71% | 1017 hPa | 0 mm | - | 713 W/m² | - |
| 1777393426 | 28.89° C | 71% | 1017 hPa | 0 mm | - | 739 W/m² | - |
| 1777393123 | 28.33° C | 75% | 1017 hPa | 0 mm | - | 720 W/m² | - |
| 1777392819 | 28.33° C | 75% | 1017.1 hPa | 0 mm | - | 487 W/m² | - |
| 1777392514 | 27.78° C | 75% | 1017.2 hPa | 0 mm | - | 279 W/m² | - |
| 1777392211 | 28.33° C | 74% | 1017.1 hPa | 0 mm | - | 282 W/m² | - |
| 1777391906 | 27.78° C | 74% | 1017.2 hPa | 0 mm | - | 429 W/m² | - |
| 1777391606 | 28.89° C | 73% | 1017.2 hPa | 0 mm | - | 325 W/m² | - |
| 1777391303 | 27.78° C | 77% | 1017.1 hPa | 0 mm | - | 732 W/m² | - |
| 1777391000 | 27.78° C | 77% | 1017.3 hPa | 0 mm | - | 248 W/m² | - |
| 1777390695 | 27.78° C | 75% | 1017.3 hPa | 0 mm | - | 361 W/m² | - |
| 1777390393 | 28.33° C | 78% | 1017.5 hPa | 0 mm | - | 242 W/m² | - |
| 1777390088 | 27.78° C | 74% | 1017.4 hPa | 0 mm | - | 606 W/m² | - |
| 1777389785 | 28.33° C | 78% | 1017.2 hPa | 0 mm | - | 564 W/m² | - |
| 1777389482 | 27.78° C | 76% | 1017.2 hPa | 0 mm | - | 366 W/m² | - |
| 1777389179 | 27.78° C | 78% | 1017.3 hPa | 0 mm | - | 394 W/m² | - |
| 1777388877 | 27.78° C | 78% | 1017.1 hPa | 0 mm | - | 442 W/m² | - |
| 1777388573 | 27.78° C | 76% | 1016.9 hPa | 0 mm | - | 477 W/m² | - |
| 1777388269 | 27.22° C | 80% | 1017.2 hPa | 0 mm | - | 472 W/m² | - |
| 1777387964 | 26.67° C | 80% | 1017.1 hPa | 0 mm | - | 373 W/m² | - |
| 1777387661 | 26.67° C | 79% | 1017.1 hPa | 0 mm | - | 363 W/m² | - |
| 1777387357 | 26.67° C | 81% | 1017.1 hPa | 0 mm | - | 244 W/m² | - |
* Rain latest hour (hover to see other rain measurements)
** Current wind speed in m/s (hover to see current wind gust speed)